Location: Austin
(30.3000°N, 97.7500°W)
Time: 23:03:28
(UTC-06:00)

Cosmos 1503 Rocket - Pass Details

Date: 03 December 2025
Orbit: 749 x 785 km, 74.0° (Epoch: 07 December)

Event Time Altitude Azimuth Distance (km) Brightness Sun altitude
Exits shadow 05:44:25 17° 339° (NNW) 1,823 5.6 -18.5°
Maximum altitude 05:48:22 75° 256° (WSW) 777 3.8 -17.7°
Drops below altitude 10° 05:53:29 10° 171° (S) 2,261 6.8 -16.6°
Sets 05:55:50 0° 170° (S) 3,185 7.6 -16.1°
